Wind_Speed
14 12 10 11 12 11 9 8 7 6 5 5 5 6 5 2 3 4 3 2 2 2 3 4 5 5 5 6 7 7 9 10 10 10 10 9 9 10 10 10 9 9 9 10 10 10 10 11 11 10 9 8 7 6 5 5 4 2 1 1 1 1 1 2 1 3 5 8 9 10 11 11 11 12 15 19 20 19 21 23 22 20 21 23 24
16 13 11 12 12 11 10 9 8 6 6 6 6 6 5 3 4 5 4 4 3 2 2 3 4 5 5 6 7 8 9 10 10 10 9 9 10 10 10 10 9 9 10 10 11 11 11 12 12 11 11 9 7 6 5 5 4 2 2 1 2 2 2 2 1 3 5 7 9 11 12 12 13 14 17 19 19 18 19 20 19 19 21 21 22
18 16 14 14 14 12 12 11 9 8 8 8 7 6 6 6 7 7 5 5 5 3 2 3 3 4 5 5 6 7 8 9 9 9 9 10 10 10 10 11 10 9 10 11 11 12 12 12 12 12 12 10 8 7 6 5 5 3 3 2 3 3 3 2 1 2 4 7 8 10 12 13 13 15 17 19 17 17 17 17 17 18 19 19 20
21 18 16 16 15 13 13 12 11 10 10 9 7 7 7 7 8 9 8 8 7 6 4 3 3 4 5 5 6 7 7 9 9 9 9 10 11 10 11 11 10 9 10 11 11 12 13 13 13 13 13 12 9 8 7 6 6 4 4 4 4 4 4 3 2 2 3 6 8 10 13 14 13 14 18 18 16 17 17 17 17 18 18 18 19
23 20 18 17 15 14 14 13 12 11 12 11 8 7 8 7 7 8 10 10 10 8 6 5 4 5 5 4 5 7 7 8 9 9 10 10 10 10 11 11 11 10 11 11 11 12 13 14 14 13 14 13 10 9 8 7 7 5 5 5 5 5 5 4 3 3 3 5 7 10 13 14 13 14 17 17 16 17 17 16 17 17 17 17 18
22 19 18 17 15 14 14 13 13 14 14 12 10 8 7 6 6 7 9 10 10 9 8 6 5 5 6 5 6 6 6 7 8 9 10 10 10 10 11 11 11 11 12 12 12 13 13 14 15 14 14 13 11 10 9 8 8 6 6 6 6 6 5 5 4 3 3 4 7 10 12 13 12 13 15 17 18 18 17 15 16 16 15 15 16
17 16 16 16 15 14 14 14 15 15 15 12 11 9 7 6 7 7 8 8 9 10 9 7 6 5 6 6 6 6 6 7 8 9 10 10 10 10 11 11 11 12 13 13 12 12 12 13 15 15 15 13 12 11 10 10 9 7 7 7 7 7 6 6 5 3 3 4 6 9 10 12 12 12 12 16 18 18 17 15 15 16 14 13 14
14 15 15 15 16 17 16 16 16 14 13 12 11 10 8 8 8 8 8 8 9 11 10 8 6 6 6 6 6 6 7 7 8 9 10 10 10 11 11 12 12 12 12 12 12 11 11 13 14 15 15 14 13 12 11 11 10 9 9 9 8 8 7 6 6 4 3 4 5 7 8 11 11 10 10 13 15 15 16 16 15 17 17 14 13
13 14 14 15 16 18 17 15 15 13 11 12 12 10 10 9 9 10 9 9 9 11 12 11 8 6 6 6 6 6 7 7 8 8 9 9 10 11 12 13 13 13 12 12 12 11 11 12 14 15 15 14 13 13 13 12 12 11 10 10 10 9 8 7 6 5 4 4 5 5 7 9 10 9 9 11 11 11 13 15 14 15 17 15 14
10 12 13 14 15 16 15 14 14 13 11 12 11 11 11 10 10 10 10 10 10 10 12 12 10 8 7 7 7 7 7 8 8 8 8 9 10 11 12 13 14 14 13 13 13 12 12 12 13 15 15 15 14 14 14 14 13 12 12 12 11 11 9 8 7 6 5 5 5 5 5 7 8 8 7 7 8 8 10 12 13 13 14 15 14
5 7 10 12 14 15 15 14 15 14 12 12 12 12 12 12 11 11 11 11 11 11 12 12 11 9 9 8 8 7 8 9 8 8 9 10 11 11 12 13 14 15 14 14 14 13 12 12 13 14 14 15 15 14 14 14 14 14 13 13 13 12 11 9 8 7 6 6 6 5 4 5 6 6 6 5 4 5 7 8 10 11 11 12 12
0 3 6 10 11 13 13 14 14 13 12 13 13 13 13 13 13 12 12 11 11 11 11 12 11 11 11 11 9 8 8 9 9 9 9 10 11 11 11 12 13 14 14 15 15 15 13 12 12 13 14 15 15 15 15 15 14 15 15 14 14 14 12 11 10 8 7 6 6 6 4 3 3 3 4 3 3 3 3 4 7 9 8 9 9
2 0 4 7 8 9 11 12 12 13 13 13 13 14 13 13 13 13 12 12 12 12 11 11 11 11 12 12 11 10 9 9 10 10 10 10 10 11 11 12 13 14 14 14 15 15 13 12 12 12 13 14 15 15 15 15 15 15 16 15 15 14 13 12 11 10 9 8 7 7 5 4 3 2 2 3 3 3 3 3 5 6 6 6 7
2 1 3 5 6 7 9 10 11 12 13 14 14 15 14 13 13 13 12 12 13 13 12 12 11 10 11 12 13 12 10 10 11 11 11 10 9 10 11 12 13 14 14 14 14 14 14 13 12 12 13 14 14 14 15 15 16 16 16 16 15 14 14 13 12 12 11 9 9 8 7 6 4 3 2 3 3 3 3 3 4 4 4 4 5
0 1 4 6 6 6 7 9 11 12 14 15 14 14 14 13 13 12 12 12 13 13 13 12 12 11 11 12 13 13 12 11 11 11 11 11 10 9 10 11 12 14 14 14 14 15 15 14 13 12 13 14 14 15 15 16 17 17 17 16 16 15 14 14 13 13 12 11 10 9 8 7 6 5 4 3 4 4 3 3 3 3 2 2 3
3 3 3 5 7 7 8 10 11 12 14 15 15 15 14 14 13 12 12 12 13 12 12 13 13 12 12 13 13 13 13 12 11 11 11 11 10 9 9 10 12 14 14 14 15 15 14 14 13 13 13 14 15 15 16 17 18 18 17 16 16 15 14 14 14 13 13 12 11 10 9 8 7 6 5 5 5 4 4 3 3 2 2 2 1
5 5 5 5 6 7 10 11 12 12 13 15 15 15 15 14 13 12 12 13 13 12 12 13 14 14 13 13 14 14 14 13 11 11 11 10 10 9 9 10 12 14 14 14 15 15 14 14 14 14 14 14 15 15 16 17 18 17 17 16 16 15 15 15 14 14 13 12 12 11 10 9 8 7 6 5 5 5 5 4 3 3 3 3 2
7 8 8 7 6 6 9 11 11 12 14 14 15 15 14 13 12 12 13 13 12 12 12 13 14 14 13 13 14 15 14 13 12 11 11 11 11 10 10 11 12 13 13 14 15 15 15 15 14 14 14 14 15 15 15 16 17 17 17 16 16 16 16 15 15 14 14 13 12 11 10 9 9 8 7 6 5 5 5 5 4 4 4 3 2
6 8 9 9 8 6 8 11 12 12 14 14 14 13 12 11 11 10 11 11 11 12 12 13 14 15 14 13 14 16 15 14 12 11 11 11 11 10 11 11 12 13 13 14 15 15 15 15 14 14 14 14 14 15 15 16 17 17 17 17 17 17 16 15 15 15 14 14 13 12 11 10 9 8 8 7 6 6 6 5 5 5 4 4 3
5 8 9 9 9 9 10 12 13 14 15 14 13 12 11 10 10 9 10 11 12 12 13 13 13 14 14 13 13 15 16 14 12 11 11 11 10 10 10 11 12 13 13 14 15 15 15 15 15 14 14 13 14 15 15 16 17 17 17 17 17 17 17 16 15 16 15 14 13 13 12 11 10 9 8 8 7 7 6 6 6 6 5 5 4
5 7 9 10 10 11 12 13 14 14 15 14 13 12 11 10 10 10 11 12 12 12 13 13 13 14 14 13 13 14 15 13 11 11 10 10 9 9 9 10 11 12 13 13 14 14 14 15 15 14 14 14 14 15 15 16 16 16 17 17 17 18 17 16 16 16 15 15 14 14 13 12 11 10 9 9 9 8 8 7 7 6 5 5 5
5 6 8 10 11 11 12 13 14 14 13 13 12 12 11 11 11 11 12 12 11 12 13 13 13 13 13 13 13 12 12 13 12 12 11 10 10 9 9 9 10 10 11 12 13 14 14 14 14 14 14 14 15 15 16 17 16 16 16 17 18 18 18 17 16 16 16 16 15 14 14 13 12 11 10 9 10 9 8 8 8 7 6 6 6
4 5 6 9 10 11 11 12 13 13 12 12 11 10 10 11 11 11 12 12 13 12 13 13 12 12 12 12 13 12 12 14 14 13 12 11 10 9 9 9 9 10 11 12 13 13 13 13 13 14 15 15 15 16 17 17 17 16 17 17 18 18 18 17 17 16 16 16 16 15 15 14 13 12 11 10 11 10 10 10 9 8 7 6 6
3 4 5 6 8 9 10 11 11 11 10 10 10 9 9 10 11 11 12 12 12 12 13 13 12 12 12 13 13 13 12 13 14 14 13 13 12 11 10 11 11 11 12 13 13 12 12 12 13 14 16 16 16 17 18 18 18 17 17 17 17 17 17 17 17 17 17 17 17 16 15 15 14 13 12 11 11 11 11 11 10 9 8 6 6
3 4 5 5 6 7 8 9 9 9 9 9 9 9 9 9 10 10 11 11 12 12 12 13 13 13 13 12 12 12 11 12 14 15 15 15 15 13 12 13 13 12 13 14 14 12 11 11 12 14 15 16 16 17 17 18 18 18 18 18 17 17 17 17 17 17 18 18 17 17 16 15 15 14 13 12 12 12 12 12 11 11 9 8 7
3 4 5 6 6 7 7 8 8 8 8 8 8 7 7 8 9 9 9 10 11 11 12 13 13 13 13 13 12 12 11 11 13 14 15 15 15 13 12 13 12 12 13 14 15 13 11 11 13 14 14 15 15 15 16 17 18 18 19 19 18 17 17 17 17 17 18 18 18 17 16 16 15 15 14 13 12 12 13 13 13 12 11 9 9
2 3 4 5 6 7 8 9 9 9 8 7 7 7 7 7 7 7 8 9 10 10 11 12 12 12 12 12 12 12 12 12 12 13 14 13 11 10 10 10 11 12 13 15 16 15 13 13 14 14 14 14 14 14 15 17 18 19 19 19 19 19 18 18 18 17 18 18 18 18 17 17 16 15 14 14 13 13 14 14 14 13 12 11 11
3 4 5 6 6 7 8 8 9 9 9 9 8 8 8 7 7 7 7 7 8 8 9 10 10 10 10 10 11 11 11 11 11 11 10 9 8 8 9 11 13 14 16 17 17 15 14 14 15 14 15 15 15 15 16 17 19 19 20 19 19 19 19 19 18 18 18 18 19 18 18 17 17 16 15 15 14 14 14 14 15 15 14 14 13
6 6 6 7 8 8 9 9 9 10 10 10 10 9 8 8 7 7 6 6 5 5 6 6 7 8 9 9 9 9 9 9 9 9 8 7 8 9 11 13 14 14 16 16 16 16 16 16 16 16 15 16 17 17 17 18 19 20 21 20 19 20 20 20 20 19 19 19 19 19 19 19 18 18 17 17 16 15 15 15 15 16 16 15 15
6 7 6 7 8 9 10 10 10 10 11 11 11 11 10 10 9 7 6 5 5 4 4 5 5 6 7 8 8 7 7 6 6 6 6 7 8 9 10 11 12 12 13 14 14 16 17 17 17 17 16 17 18 18 18 19 19 20 21 21 21 21 21 21 20 20 20 20 20 20 20 20 20 19 19 18 17 17 16 16 16 17 17 17 16
3 6 6 7 8 9 9 10 10 11 12 12 12 11 11 11 10 9 8 7 6 5 5 5 5 5 5 6 7 7 7 7 6 6 6 6 7 7 7 8 9 9 10 11 13 14 15 16 16 16 17 18 19 20 20 19 19 20 21 22 22 22 21 21 21 20 21 21 22 22 22 22 21 20 20 19 19 18 18 18 18 18 18 17 17
4 5 6 7 7 8 8 8 10 11 12 13 13 12 12 11 11 10 9 9 8 7 7 6 6 6 6 6 6 7 7 7 7 7 6 6 7 6 6 6 6 7 7 8 9 11 12 13 14 15 17 18 19 20 20 20 20 21 22 23 23 22 22 22 21 22 22 23 23 23 23 23 22 21 21 21 20 20 19 20 20 19 19 19 19
8 7 6 8 7 8 8 8 8 10 11 12 12 12 13 12 12 11 10 9 9 9 9 9 9 9 9 9 9 9 9 9 9 8 8 8 9 9 8 8 8 8 8 8 8 9 10 10 11 12 14 16 17 18 19 20 21 23 24 24 24 24 23 23 23 23 24 24 24 24 24 23 22 22 23 22 21 21 21 21 21 21 21 20 20
10 10 6 8 8 7 7 7 8 10 11 11 11 11 12 12 11 11 11 11 11 11 11 11 11 11 11 11 12 12 12 12 12 12 12 12 12 12 12 12 12 12 12 12 12 12 12 12 12 12 13 15 16 17 18 19 21 23 24 24 25 25 25 24 24 24 25 26 26 25 24 24 23 23 24 23 23 22 22 21 22 23 23 22 22
8 9 4 6 10 10 9 8 9 10 12 12 12 12 12 12 12 12 12 12 13 13 13 13 13 13 13 13 14 14 14 14 14 15 15 15 15 15 15 15 15 15 16 16 16 16 16 16 16 16 16 17 17 17 17 18 19 21 22 24 25 26 26 26 26 27 27 27 27 26 25 24 24 25 25 25 25 24 24 24 24 25 25 24 23
6 5 4 1 6 11 14 14 12 11 13 14 14 13 13 13 13 13 13 13 14 14 14 15 15 15 15 15 15 15 15 15 15 16 16 16 17 17 18 18 18 19 19 19 19 20 20 20 20 20 20 20 21 20 20 19 19 20 21 22 24 25 26 27 28 29 28 27 27 27 27 26 26 26 27 27 27 26 26 27 26 26 27 26 25
7 7 7 5 4 7 13 16 14 12 12 14 15 15 15 15 14 14 14 14 14 14 15 15 15 15 16 16 16 17 17 17 17 17 18 18 18 19 20 20 21 21 22 22 22 23 23 23 23 23 23 23 24 24 23 23 22 21 21 22 23 25 26 26 28 28 28 28 29 29 29 28 28 29 29 29 29 29 29 30 30 29 29 28 28
8 8 10 11 11 11 14 16 15 12 12 14 16 16 16 16 16 15 14 14 14 14 15 15 16 17 17 17 18 18 19 19 19 20 20 20 21 22 22 23 23 24 24 25 25 25 25 26 26 26 26 26 27 27 27 26 26 24 24 24 24 25 26 26 26 27 28 29 30 30 29 29 30 31 32 32 31 31 31 32 32 32 31 31 31
13 12 12 13 13 14 15 15 13 10 11 13 16 17 18 18 17 17 16 16 15 15 15 16 16 17 17 18 19 19 20 20 20 21 21 21 22 22 23 24 25 25 26 27 27 28 28 28 29 29 29 29 29 30 30 30 29 28 27 27 27 27 27 27 26 26 27 29 30 30 30 30 31 32 32 32 32 32 32 32 33 33 32 32 32
15 15 14 12 11 12 14 14 12 10 10 12 14 16 18 19 19 19 18 17 16 15 15 16 16 17 17 18 19 19 20 20 20 21 21 21 21 22 22 23 24 25 26 27 28 28 29 29 30 31 31 31 32 32 33 33 32 32 31 30 29 29 30 30 29 28 28 29 30 30 31 31 32 32 32 32 32 32 32 33 33 32 31 32 32
18 16 13 11 11 12 14 16 16 14 13 14 15 16 17 18 20 20 20 19 17 17 16 16 17 17 18 18 19 20 20 21 21 21 21 22 22 22 23 24 24 25 26 27 28 28 29 30 30 31 31 32 33 34 35 35 34 34 34 33 32 32 32 32 32 31 31 31 30 31 31 31 32 32 32 32 32 32 32 32 31 30 29 29 31
23 20 17 16 16 16 17 19 20 19 19 19 19 19 18 18 19 20 20 19 18 18 17 17 17 18 18 18 19 19 20 21 21 21 22 22 22 23 24 24 25 25 26 26 27 28 29 30 30 31 31 32 33 34 35 36 36 36 36 35 35 34 34 33 33 34 34 33 33 32 32 31 31 32 32 32 32 32 31 31 30 29 29 29 30
28 26 24 23 23 21 20 21 21 22 22 21 20 21 21 19 18 18 18 18 17 17 17 17 17 18 18 18 18 18 19 19 20 20 21 21 21 22 23 23 24 25 25 26 27 27 28 29 30 30 31 32 32 33 34 36 37 37 37 37 37 36 36 35 35 35 35 35 35 34 34 33 32 31 32 32 33 33 32 32 31 31 30 30 30
31 31 30 28 26 24 22 22 23 24 25 24 23 23 23 21 19 18 17 17 16 16 16 16 17 17 17 17 17 17 17 18 18 19 19 19 20 20 21 21 22 23 23 24 25 26 27 27 27 28 30 31 32 33 34 35 36 37 37 38 38 37 37 36 36 35 35 36 36 36 35 35 33 32 32 32 33 33 34 33 33 32 32 31 31
35 34 32 31 30 28 25 25 25 24 25 26 26 24 23 22 19 17 16 16 16 16 16 16 17 17 17 17 16 16 16 16 17 17 18 18 19 19 20 21 21 22 22 23 23 24 25 25 26 26 27 29 30 32 33 34 34 35 36 37 38 38 38 37 37 36 36 36 36 36 36 36 35 33 32 32 33 34 34 34 34 33 32 32 32
40 38 36 36 35 33 29 25 24 24 24 25 25 24 23 22 20 17 16 16 16 17 17 17 17 17 17 17 17 16 16 16 17 17 18 18 18 19 20 21 22 22 23 23 23 24 24 25 25 26 27 27 28 30 31 32 33 34 35 36 36 37 37 37 37 37 36 36 35 35 36 36 35 34 34 34 33 33 34 34 34 34 33 33 32
43 42 42 41 40 40 36 29 24 23 23 24 25 24 23 21 20 18 17 16 16 17 18 18 18 18 18 18 17 17 17 17 17 17 18 18 19 20 21 21 22 23 23 23 23 24 24 25 26 27 27 28 28 29 30 31 32 33 33 34 34 35 35 35 36 36 36 36 35 35 34 34 34 34 34 34 33 32 32 33 33 33 33 33 32
41 42 44 43 40 40 39 33 25 22 23 24 25 24 22 21 20 19 17 16 16 17 18 19 19 19 19 19 18 18 18 17 17 18 18 19 20 21 22 22 23 23 23 24 24 24 25 25 26 27 27 28 29 29 29 29 30 31 31 32 32 33 33 34 34 34 35 35 35 35 34 34 34 34 33 33 32 31 31 31 31 31 30 30 30
38 38 40 39 35 33 34 32 26 23 25 25 25 24 22 21 21 20 19 18 17 18 19 19 20 20 20 19 19 19 19 18 18 19 19 20 21 22 23 23 23 23 24 24 25 25 26 26 26 27 27 28 29 29 29 29 28 29 30 30 30 31 31 32 33 33 34 34 35 35 34 33 33 32 32 31 30 30 29 28 28 28 28 28 28
36 33 33 32 28 26 29 32 29 27 28 28 27 26 24 23 22 22 21 20 19 19 19 20 20 21 20 20 20 19 19 19 19 20 20 21 22 23 23 24 24 23 23 24 25 25 26 26 25 26 26 27 28 28 27 26 26 27 27 28 28 29 29 30 31 32 33 33 33 33 33 32 32 31 30 30 29 28 28 27 27 26 26 26 25
37 33 30 30 27 23 27 33 35 33 34 35 34 31 28 26 24 23 22 22 21 20 21 21 20 20 21 20 20 20 20 20 20 20 21 22 22 23 23 24 23 22 22 23 24 24 25 25 25 25 25 26 26 26 24 23 23 24 24 25 26 27 27 28 29 30 31 32 32 32 32 31 30 30 29 28 28 27 26 26 25 25 24 23 22
Wind_Direction
234 228 207 198 197 192 194 204 209 204 206 214 215 225 231 245 273 264 244 248 275 264 258 252 239 231 218 216 228 228 223 218 216 219 226 234 237 239 239 235 230 225 224 225 226 226 228 232 234 234 238 241 241 246 251 250 242 233 159 140 173 194 238 265 335 48 68 77 77 74 73 66 54 40 31 33 33 28 28 32 38 42 39 38 37
231 226 213 209 204 195 196 205 211 208 213 221 221 227 234 251 273 267 241 237 253 256 254 256 244 236 226 215 219 225 223 217 212 212 217 227 232 232 235 235 229 225 226 226 227 226 227 231 231 232 237 242 243 247 248 241 233 211 173 194 209 198 226 247 19 49 65 69 69 71 70 63 50 37 35 39 36 30 32 38 44 45 42 40 39
226 224 214 210 206 199 200 206 213 215 216 222 226 234 246 260 266 263 250 239 240 243 247 248 247 244 232 220 218 221 222 219 212 209 212 221 228 228 228 229 226 224 227 228 228 226 226 230 230 231 237 242 244 248 246 234 226 206 174 189 198 192 213 212 128 100 77 63 64 73 72 62 50 39 40 45 40 34 38 46 49 48 45 42 42
222 221 216 213 209 206 209 212 218 225 225 223 227 240 251 263 264 252 242 239 237 238 241 235 238 247 237 222 219 218 217 217 209 203 208 217 225 224 223 225 222 221 226 227 228 227 225 227 229 230 235 239 241 243 239 228 223 209 182 190 196 194 204 195 169 159 98 63 66 79 76 64 52 44 46 48 45 43 48 52 51 50 48 46 44
222 219 216 216 214 213 217 219 220 230 235 234 237 246 251 257 254 234 227 231 232 232 236 226 219 238 241 224 216 215 213 214 206 197 203 212 219 218 217 222 221 218 221 222 223 224 224 224 225 227 232 236 236 235 232 224 220 210 191 195 202 201 201 193 182 168 115 72 75 82 78 68 56 47 49 51 48 50 56 54 50 50 49 47 44
226 220 215 215 217 218 221 223 223 229 238 245 250 250 247 243 232 216 216 224 223 220 224 218 206 226 240 228 217 215 211 212 206 198 201 208 214 217 215 218 220 218 218 218 219 220 222 223 223 223 227 230 228 227 225 221 217 209 196 195 198 200 195 189 182 157 120 86 81 83 80 72 62 52 53 57 54 54 59 54 47 45 44 45 42
225 221 217 216 218 219 222 227 229 233 240 246 251 251 243 229 219 210 212 219 216 212 217 216 206 219 237 230 221 218 209 208 208 201 198 201 209 216 218 218 219 219 218 217 218 219 220 222 223 223 225 225 222 220 219 217 214 206 198 196 197 199 191 184 178 158 133 101 85 86 85 76 70 60 56 61 57 54 59 56 47 44 43 42 38
220 219 220 222 222 219 221 229 234 238 240 240 242 243 237 224 217 213 211 216 214 211 216 217 210 218 232 229 224 224 213 205 208 206 198 197 203 211 215 218 219 220 220 218 217 219 220 223 224 225 225 223 219 216 214 213 210 204 201 198 199 200 192 182 176 167 151 117 99 99 93 82 80 72 59 62 57 49 55 57 53 50 49 46 41
221 221 223 227 228 222 220 227 235 237 235 235 236 232 227 221 217 217 215 217 216 212 216 219 214 218 229 228 225 229 225 212 206 207 202 195 198 204 209 215 218 219 220 220 218 217 219 222 225 226 226 223 219 216 213 212 208 203 201 198 198 199 192 183 176 170 161 138 126 122 106 93 92 87 68 61 54 45 50 56 56 53 52 51 49
221 219 221 226 226 219 215 219 227 228 225 228 229 222 222 221 219 218 218 220 221 215 217 221 220 222 231 235 232 230 232 222 206 203 202 194 195 201 206 211 215 216 217 218 218 216 218 221 225 227 226 223 219 217 215 213 207 203 202 196 195 196 192 184 179 173 166 155 145 137 120 104 99 96 84 68 54 44 46 57 62 57 54 55 50
220 216 217 219 218 212 209 211 218 221 220 222 224 220 221 223 223 221 219 223 227 225 225 227 227 231 237 241 239 234 234 229 215 203 199 196 198 202 204 210 214 215 216 217 217 216 215 218 224 228 227 224 220 217 216 213 208 205 204 198 193 193 193 189 185 180 172 162 152 146 132 110 105 109 107 93 72 55 47 56 69 67 61 59 54
300 234 225 218 214 212 210 211 220 227 227 225 224 223 224 227 229 227 224 227 232 232 232 234 236 240 243 243 242 238 234 230 223 212 202 197 200 204 205 209 213 215 216 217 218 215 213 214 219 223 224 223 220 217 217 215 209 208 208 202 195 193 193 193 189 186 180 167 161 160 156 147 135 129 120 111 107 98 75 68 77 76 69 65 65
33 232 230 218 210 212 217 219 226 235 236 229 221 221 226 231 235 235 231 232 236 236 235 237 240 242 243 242 239 235 229 226 225 219 212 204 202 204 205 205 208 212 215 217 218 217 214 213 213 217 220 220 219 218 218 217 212 211 211 206 199 194 194 194 192 191 189 176 172 179 184 193 195 175 150 140 137 130 123 113 99 91 83 77 78
36 173 219 213 199 203 216 221 222 225 230 228 218 216 222 229 236 239 236 234 237 240 238 238 241 241 241 240 236 233 229 227 225 220 216 211 206 205 206 205 204 207 211 214 216 217 217 213 210 212 216 217 217 217 219 221 218 215 213 210 204 198 195 195 195 197 197 187 182 190 196 205 214 214 197 170 161 161 152 139 127 121 110 96 95
215 222 229 222 211 210 217 220 220 218 222 225 219 214 218 226 234 238 236 235 240 244 243 242 242 241 240 239 236 235 232 229 226 220 216 216 214 211 210 210 207 205 207 209 212 216 219 217 210 209 213 215 215 216 218 223 222 218 216 214 211 205 199 199 199 200 202 198 192 195 201 206 213 217 209 186 173 169 159 158 149 138 136 124 120
233 220 224 231 229 231 232 226 224 220 218 222 222 217 219 226 233 237 238 239 243 248 249 248 247 244 240 235 234 235 233 230 229 223 219 222 221 214 211 215 213 207 205 206 211 216 219 221 217 211 210 213 216 216 219 223 225 222 219 216 214 210 205 204 205 205 206 206 202 201 203 205 210 217 213 193 181 173 165 172 166 153 179 192 158
245 216 206 222 230 236 234 224 218 213 211 217 220 217 218 225 232 236 238 240 245 251 253 251 251 250 242 231 230 233 233 232 232 227 223 224 223 217 215 219 217 212 209 211 215 217 218 220 221 216 210 211 215 218 220 225 227 226 222 219 217 214 211 209 211 212 213 214 212 210 209 208 211 218 222 208 193 183 177 185 187 181 205 214 186
245 223 209 208 214 230 228 216 208 202 202 210 214 213 216 224 232 234 236 242 248 254 254 250 250 251 245 232 226 229 232 231 230 227 225 224 221 217 217 220 221 218 216 216 217 217 218 219 221 220 214 211 214 218 221 225 229 229 226 223 221 219 216 214 216 218 220 221 221 220 219 216 216 220 227 227 214 201 193 195 201 200 220 242 228
236 227 219 210 212 220 215 210 206 199 199 205 210 213 217 224 229 234 240 247 250 252 251 247 247 250 249 240 227 222 225 228 228 227 226 226 224 219 218 219 220 221 219 217 216 216 218 220 223 223 218 214 215 217 221 226 229 231 230 228 226 224 222 220 221 224 226 227 227 229 230 228 225 226 231 235 230 221 213 210 212 211 223 252 265
228 224 220 211 210 209 202 202 202 197 197 201 205 210 216 222 229 235 241 245 246 245 243 242 243 245 248 248 238 224 221 224 230 232 228 225 226 227 224 222 221 221 220 219 217 215 214 217 222 224 221 217 216 218 221 226 229 231 232 232 232 231 229 227 228 231 233 234 234 235 237 238 237 236 238 242 243 239 236 230 224 222 228 243 252
232 221 215 209 208 206 199 197 197 195 195 198 201 207 213 221 228 230 234 240 244 242 239 238 236 235 239 246 245 234 226 225 232 237 234 225 225 232 235 231 227 224 222 220 218 215 214 215 218 222 223 222 221 220 222 227 231 233 235 237 237 236 235 233 233 236 239 240 241 240 242 244 246 246 245 247 250 249 249 247 242 239 241 243 252
243 228 215 207 204 205 199 195 197 195 194 196 198 202 208 215 222 225 229 234 236 234 232 231 228 227 233 238 240 237 230 225 226 230 230 226 224 230 238 240 236 233 230 226 222 218 215 216 218 220 223 227 227 225 224 227 231 235 238 240 241 241 241 240 238 240 242 244 245 245 246 248 249 250 249 250 255 257 256 256 256 254 251 250 257
242 227 219 207 198 200 198 196 198 193 190 197 201 202 206 210 214 221 226 227 226 225 224 223 220 220 223 223 225 226 223 221 223 224 224 224 222 221 228 235 235 236 236 232 228 224 218 216 220 223 224 226 228 229 228 229 232 237 241 243 244 244 246 247 246 245 245 247 248 248 248 249 249 250 250 249 254 259 260 260 260 259 256 253 255
224 204 212 208 197 197 195 196 201 198 196 205 211 210 207 206 207 212 218 222 224 225 224 222 215 212 210 208 211 217 218 221 225 224 222 223 220 214 216 224 227 229 236 237 230 224 220 218 220 224 224 225 226 228 230 232 233 236 240 243 245 247 249 251 252 252 250 250 250 250 249 250 250 251 250 250 253 258 260 261 263 265 264 261 257
210 190 194 202 201 200 199 200 206 211 212 212 213 210 204 203 204 206 210 216 220 222 224 224 218 212 210 207 208 211 212 214 217 217 217 219 219 212 208 216 222 223 232 241 238 227 222 223 226 227 227 227 228 230 233 236 236 237 237 239 241 246 250 253 255 256 256 256 255 254 253 253 254 254 255 255 256 261 264 264 266 267 268 266 262
206 195 189 194 199 204 207 204 205 211 215 214 213 210 206 203 203 202 203 207 211 213 218 223 222 219 217 216 214 211 209 209 210 213 217 217 216 211 205 210 218 220 226 237 241 234 225 227 232 233 233 233 233 235 239 241 242 242 242 240 239 242 248 252 255 258 260 261 262 262 261 260 259 259 260 260 261 263 266 268 269 270 271 269 265
210 207 197 192 193 199 207 209 206 206 211 217 221 220 221 218 212 208 203 202 205 207 210 215 218 220 225 228 227 224 222 221 218 221 225 225 223 223 223 225 227 227 230 233 235 232 226 228 233 233 235 236 235 236 238 241 243 245 246 245 244 244 245 246 250 255 258 261 262 262 262 263 263 263 262 262 262 262 264 267 270 272 272 270 266
198 210 213 207 200 198 204 210 210 207 208 214 220 225 230 232 230 226 221 214 209 208 209 210 209 212 218 228 234 234 233 231 228 229 235 242 241 237 240 243 239 235 235 234 234 234 231 233 236 236 234 235 234 233 235 239 243 245 246 247 249 252 252 249 248 250 253 257 259 260 260 260 261 262 262 262 261 261 262 264 268 270 270 268 267
194 203 210 212 209 203 201 204 208 209 207 207 211 217 224 229 232 236 238 235 226 222 220 216 210 207 208 213 223 232 236 236 237 238 241 247 247 240 236 240 241 240 239 238 239 241 239 237 238 238 236 237 237 235 235 238 242 245 247 249 250 254 256 255 253 252 253 254 255 256 258 259 259 259 259 259 260 260 260 261 263 265 267 267 266
193 200 211 218 217 212 207 205 206 209 210 209 208 211 216 222 226 231 235 235 231 226 224 221 215 210 205 201 201 207 215 222 227 232 234 234 236 238 237 239 242 244 244 244 243 244 243 241 240 240 239 240 242 243 242 241 242 245 247 249 251 252 252 253 254 256 257 257 256 256 256 257 257 257 257 258 258 258 257 258 259 261 264 266 267
203 202 212 225 230 226 218 215 215 215 216 216 214 214 216 219 221 223 227 230 232 232 231 232 232 227 221 214 208 206 207 208 209 214 220 227 231 233 237 242 246 246 246 247 247 247 248 246 246 246 243 241 243 246 248 247 246 245 245 246 248 250 251 251 251 253 256 257 258 259 258 257 258 258 258 258 257 257 257 258 259 259 261 262 263
293 247 224 225 236 238 233 228 225 224 222 221 219 218 219 221 222 223 224 227 233 239 245 251 256 255 251 246 245 243 239 236 235 234 236 243 248 250 252 254 257 257 255 255 254 254 254 252 252 252 251 248 246 246 248 248 247 246 245 244 245 248 250 250 249 250 252 253 255 256 257 257 258 258 258 258 258 258 259 260 260 259 260 260 260
331 316 262 230 228 235 238 241 242 238 234 229 225 222 220 221 222 223 226 227 230 234 238 244 252 257 259 260 261 262 262 260 260 259 258 259 261 264 266 266 267 267 266 266 266 266 265 263 260 258 257 257 254 250 248 247 246 246 246 246 246 248 249 249 249 249 249 250 251 253 255 256 257 258 259 260 260 260 259 260 262 263 262 261 262
344 344 297 238 231 234 230 237 252 254 251 244 237 231 226 223 222 222 226 231 233 235 235 237 241 246 250 254 258 260 262 263 264 264 265 266 266 268 269 270 271 271 271 271 271 271 272 272 270 265 262 260 258 255 251 248 247 247 247 247 248 248 248 248 249 249 248 249 250 252 255 256 256 257 258 260 260 260 259 261 263 264 263 262 263
341 1 355 217 223 236 239 245 256 262 264 261 253 246 239 232 229 228 229 233 236 238 240 240 241 244 246 249 252 255 257 260 262 265 267 268 269 270 271 272 273 273 273 273 273 272 273 273 272 271 269 267 265 263 260 256 253 251 250 249 248 248 248 248 248 247 248 250 252 253 254 255 256 257 259 261 261 261 260 261 263 264 263 264 265
311 342 9 169 218 243 253 258 259 262 267 267 263 259 253 247 243 242 240 240 239 239 241 243 244 247 250 252 254 257 258 259 260 262 265 267 269 270 271 272 273 273 273 273 273 273 272 273 273 272 272 272 271 269 267 264 262 259 258 255 253 251 250 249 248 248 248 250 253 254 255 256 257 257 258 260 262 262 262 263 264 264 264 264 264
279 281 292 313 316 274 263 260 257 258 265 266 265 263 260 256 255 253 251 250 248 246 246 247 248 250 252 254 257 259 261 262 263 263 264 265 266 268 270 271 271 272 272 272 272 271 271 271 272 272 273 273 273 272 271 269 266 264 263 262 261 259 257 254 253 253 252 251 251 253 253 255 257 257 257 258 258 259 261 263 265 265 266 266 265
260 264 277 294 305 295 277 264 256 256 264 266 265 263 260 258 257 256 255 255 255 256 255 254 255 256 257 258 260 261 263 264 265 266 267 267 268 269 270 270 271 271 271 271 271 270 270 270 270 270 270 271 272 273 273 271 269 267 265 264 264 264 262 260 258 257 256 254 254 254 254 254 255 256 256 257 257 256 258 261 262 264 265 266 266
253 261 274 286 293 291 282 272 263 262 268 269 266 262 259 257 255 254 253 252 253 256 258 259 261 262 263 264 264 265 266 266 267 267 268 269 270 271 271 272 272 272 272 272 272 271 271 270 269 269 269 269 270 271 272 272 271 270 268 266 265 265 266 265 262 259 257 257 257 258 258 257 256 255 255 257 259 261 261 261 261 262 264 266 267
261 263 267 274 283 285 282 280 279 278 279 281 277 269 262 257 254 252 250 250 251 253 257 261 264 266 267 268 268 268 269 270 270 271 272 272 272 273 274 274 275 275 275 275 275 275 274 273 272 271 270 270 270 270 270 270 270 270 270 268 266 266 266 267 266 264 261 260 260 259 258 257 257 257 258 259 261 263 262 261 262 262 264 265 267
269 268 266 271 282 286 287 287 286 284 286 292 293 285 272 261 254 250 247 247 249 252 255 259 262 264 266 267 268 269 270 271 272 272 274 275 276 276 277 277 277 278 278 278 278 278 278 278 276 275 273 272 271 271 270 270 270 269 269 269 268 266 265 265 266 266 265 263 262 260 259 258 258 258 258 258 259 259 260 260 261 262 262 263 264
267 270 273 278 281 283 285 285 282 282 287 293 296 292 282 269 257 250 246 245 246 249 253 257 259 261 262 263 265 267 268 269 271 272 274 275 277 278 279 279 279 279 280 280 279 279 279 279 279 279 278 276 274 273 273 272 272 271 270 269 269 268 267 265 264 265 265 265 264 263 263 262 260 259 258 257 257 258 258 260 261 261 261 261 261
262 265 269 273 277 280 282 282 281 281 284 290 296 294 286 275 264 255 247 243 244 247 251 256 258 259 259 261 262 263 266 268 270 273 275 277 278 279 280 281 281 281 281 281 281 281 280 280 280 280 280 279 277 275 274 274 273 273 272 271 270 269 268 267 266 264 264 265 265 266 265 265 264 262 260 259 258 258 258 259 260 260 261 261 262
264 264 265 268 270 274 277 278 279 280 280 283 289 292 287 277 267 260 252 246 245 247 251 254 257 258 259 259 260 262 265 268 271 274 277 279 281 283 283 284 285 285 284 284 283 283 283 282 282 281 281 281 280 278 276 275 273 273 273 272 271 270 269 268 267 266 264 264 264 265 265 266 266 265 264 262 260 259 259 259 259 259 260 261 263
265 266 268 269 268 268 270 270 271 273 277 280 282 285 283 275 267 262 257 252 249 249 251 253 255 256 257 257 258 261 265 269 271 274 277 280 283 285 287 288 288 288 288 287 286 284 283 283 283 283 282 281 281 280 278 277 275 273 272 272 272 271 270 269 268 267 265 264 263 263 264 264 265 266 266 264 262 261 260 260 261 261 262 263 264
265 267 271 272 269 265 263 261 262 266 271 276 279 281 278 271 265 262 259 256 253 250 249 251 252 254 256 257 259 262 265 269 272 274 277 280 283 286 288 289 289 289 288 288 287 285 284 283 282 283 284 283 283 282 280 278 276 274 272 271 271 271 271 270 269 267 266 265 263 262 262 262 263 264 264 264 264 263 263 263 263 263 264 264 265
263 266 270 271 271 268 259 249 249 258 264 269 272 273 271 267 264 262 260 257 256 253 251 251 252 253 256 258 260 263 266 269 272 274 278 282 285 288 290 290 290 289 288 287 286 285 284 283 282 282 283 284 285 285 283 280 276 273 271 270 269 270 270 269 268 267 266 265 263 262 261 260 261 261 262 262 263 263 262 261 261 262 263 264 266
261 264 266 268 272 268 252 233 227 239 251 258 261 261 262 262 261 262 263 263 262 261 258 256 255 255 257 259 262 265 267 270 273 275 279 284 288 290 291 291 291 291 291 290 289 287 286 284 283 282 282 283 285 286 285 282 277 273 270 268 267 267 267 267 266 265 264 263 262 262 261 260 260 260 261 262 262 262 261 260 260 261 262 263 266
259 260 262 264 266 260 242 225 219 226 235 243 249 251 252 255 257 260 263 265 267 267 266 264 261 259 260 261 264 267 270 272 276 279 283 287 289 291 291 291 291 291 292 292 292 291 290 288 285 284 283 284 284 285 285 282 277 272 269 267 266 266 265 265 264 263 262 261 260 260 261 260 260 260 261 261 262 263 263 263 262 263 264 265 267
257 256 257 258 260 256 243 234 231 230 230 234 239 242 244 246 250 254 258 261 264 267 268 267 265 262 262 263 266 269 272 275 277 281 284 286 288 289 290 290 291 291 292 294 295 295 295 293 290 288 287 286 286 286 285 281 276 272 269 267 266 265 264 264 263 262 261 260 260 259 259 259 260 260 260 260 261 262 263 264 265 266 267 269 269
255 253 253 254 257 259 254 246 239 233 233 237 238 238 238 239 242 247 252 256 260 264 266 267 266 265 265 266 268 271 273 275 277 280 283 286 288 290 290 290 291 292 294 297 299 300 301 299 297 294 292 290 290 289 286 281 276 272 270 268 267 267 265 264 263 262 260 260 259 259 258 258 258 259 259 259 260 261 262 263 265 266 267 267 267
Height
5896 5898 5901 5903 5904 5905 5905 5905 5905 5906 5906 5907 5907 5907 5907 5907 5907 5908 5909 5909 5909 5909 5910 5910 5910 5910 5909 5909 5910 5911 5911 5911 5912 5912 5913 5914 5915 5916 5916 5917 5918 5918 5919 5920 5920 5921 5921 5922 5922 5923 5923 5923 5923 5923 5922 5923 5923 5923 5923 5922 5921 5921 5920 5919 5919 5919 5920 5920 5919 5920 5920 5919 5918 5916 5915 5913 5910 5908 5906 5905 5904 5903 5902 5901 5900
5895 5897 5899 5900 5902 5903 5903 5903 5903 5905 5906 5906 5907 5907 5906 5906 5907 5907 5908 5908 5909 5909 5909 5909 5909 5909 5909 5909 5909 5910 5910 5910 5910 5911 5912 5912 5913 5914 5915 5916 5917 5917 5917 5918 5919 5920 5920 5921 5921 5922 5922 5922 5922 5922 5922 5922 5922 5922 5922 5921 5921 5921 5920 5919 5918 5918 5919 5919 5920 5920 5920 5918 5917 5916 5914 5913 5911 5910 5908 5907 5906 5906 5905 5903 5902
5894 5895 5896 5898 5900 5901 5901 5902 5902 5904 5906 5906 5906 5906 5906 5906 5906 5906 5906 5907 5908 5908 5908 5909 5909 5908 5908 5908 5908 5909 5909 5909 5910 5910 5911 5911 5912 5913 5914 5914 5915 5916 5916 5917 5918 5918 5919 5920 5920 5920 5921 5921 5921 5921 5921 5921 5922 5922 5921 5921 5920 5920 5920 5919 5918 5918 5919 5919 5920 5920 5920 5918 5917 5916 5915 5914 5913 5912 5910 5909 5909 5908 5906 5905 5904
5892 5893 5895 5896 5897 5899 5899 5900 5901 5902 5903 5905 5905 5906 5906 5905 5905 5905 5905 5906 5907 5907 5908 5908 5908 5908 5907 5907 5907 5908 5908 5908 5909 5909 5910 5910 5911 5912 5913 5913 5914 5915 5915 5916 5917 5917 5918 5918 5919 5919 5920 5920 5920 5920 5920 5921 5921 5921 5921 5920 5920 5920 5920 5919 5919 5919 5919 5919 5920 5920 5920 5919 5918 5917 5916 5915 5915 5913 5912 5911 5910 5909 5908 5907 5906
5890 5892 5893 5894 5895 5896 5897 5898 5899 5899 5900 5902 5903 5904 5905 5905 5904 5904 5904 5904 5905 5906 5907 5907 5907 5907 5906 5906 5906 5906 5907 5907 5908 5908 5909 5909 5910 5911 5912 5912 5913 5914 5914 5915 5916 5916 5917 5917 5918 5918 5919 5919 5919 5920 5920 5920 5920 5920 5920 5920 5920 5920 5920 5919 5919 5919 5919 5919 5920 5920 5919 5919 5918 5917 5917 5917 5916 5914 5913 5913 5912 5911 5910 5909 5908
5889 5890 5891 5892 5893 5895 5895 5896 5897 5898 5898 5899 5901 5902 5903 5903 5903 5903 5903 5903 5904 5905 5906 5906 5906 5906 5906 5906 5906 5906 5906 5907 5907 5907 5907 5908 5909 5910 5911 5911 5912 5913 5913 5914 5914 5915 5915 5916 5916 5917 5917 5918 5919 5919 5919 5920 5920 5920 5920 5920 5920 5920 5919 5919 5919 5919 5919 5919 5919 5919 5920 5920 5919 5918 5919 5918 5916 5915 5914 5914 5913 5912 5911 5910 5910
5888 5889 5890 5891 5892 5893 5894 5895 5896 5896 5896 5897 5899 5900 5901 5901 5902 5902 5902 5902 5903 5904 5905 5905 5905 5905 5905 5905 5905 5905 5906 5906 5906 5906 5906 5907 5908 5909 5910 5910 5911 5912 5913 5913 5913 5914 5914 5915 5915 5916 5916 5917 5918 5918 5918 5919 5919 5919 5919 5920 5920 5920 5919 5919 5919 5919 5919 5919 5919 5920 5920 5921 5920 5919 5919 5919 5918 5917 5916 5915 5914 5913 5912 5912 5911
5886 5887 5888 5889 5890 5892 5893 5893 5894 5895 5895 5896 5897 5898 5899 5900 5900 5901 5901 5901 5902 5903 5904 5905 5904 5904 5905 5904 5904 5905 5905 5905 5906 5905 5905 5906 5907 5908 5909 5910 5910 5911 5912 5912 5912 5913 5913 5914 5914 5915 5915 5916 5917 5917 5917 5918 5918 5918 5919 5919 5920 5920 5919 5919 5919 5919 5919 5920 5920 5920 5921 5921 5921 5920 5920 5919 5919 5919 5918 5916 5915 5914 5913 5913 5913
5884 5886 5887 5887 5888 5890 5892 5892 5893 5894 5895 5895 5896 5897 5897 5898 5899 5899 5900 5900 5901 5902 5903 5903 5903 5903 5904 5904 5904 5904 5904 5904 5905 5905 5905 5905 5906 5907 5908 5909 5909 5910 5910 5911 5911 5912 5912 5913 5913 5914 5914 5915 5916 5916 5917 5917 5917 5918 5918 5918 5919 5919 5919 5919 5919 5919 5919 5920 5920 5920 5921 5921 5921 5921 5920 5919 5919 5920 5919 5917 5917 5916 5915 5914 5914
5883 5884 5885 5886 5887 5889 5890 5891 5892 5893 5894 5895 5895 5896 5896 5897 5898 5898 5899 5899 5900 5901 5901 5902 5902 5902 5903 5903 5903 5904 5903 5903 5904 5904 5904 5904 5905 5905 5906 5907 5908 5909 5909 5910 5910 5911 5911 5912 5912 5913 5913 5914 5915 5916 5916 5916 5917 5917 5917 5918 5918 5919 5919 5919 5919 5919 5919 5920 5920 5920 5921 5921 5921 5921 5921 5920 5920 5920 5919 5918 5918 5917 5916 5915 5915
5883 5884 5884 5885 5886 5887 5888 5889 5891 5892 5893 5894 5894 5895 5895 5896 5896 5897 5898 5898 5898 5899 5900 5900 5900 5901 5901 5902 5902 5903 5903 5903 5903 5903 5904 5904 5904 5904 5905 5906 5907 5908 5908 5909 5909 5910 5910 5911 5911 5912 5913 5913 5914 5915 5915 5916 5916 5916 5916 5917 5918 5918 5919 5919 5919 5919 5919 5920 5920 5920 5920 5920 5921 5921 5921 5921 5921 5920 5920 5919 5919 5918 5917 5917 5916
5883 5883 5884 5885 5886 5887 5888 5889 5890 5892 5893 5893 5893 5894 5894 5894 5895 5896 5897 5897 5897 5898 5898 5899 5899 5899 5900 5900 5901 5901 5902 5902 5902 5902 5903 5903 5903 5904 5904 5905 5906 5906 5907 5908 5908 5909 5909 5910 5910 5911 5912 5912 5913 5914 5914 5915 5915 5915 5916 5916 5917 5918 5918 5918 5919 5919 5919 5920 5919 5919 5919 5919 5920 5921 5921 5921 5921 5921 5921 5920 5919 5918 5918 5918 5917
5883 5883 5884 5885 5886 5887 5888 5889 5890 5891 5892 5892 5893 5893 5893 5893 5894 5895 5896 5896 5896 5896 5897 5897 5897 5897 5898 5899 5899 5900 5900 5900 5901 5901 5901 5902 5902 5903 5903 5904 5904 5905 5906 5907 5907 5908 5908 5909 5909 5910 5911 5911 5912 5913 5913 5914 5914 5914 5915 5916 5916 5917 5917 5918 5918 5919 5919 5919 5919 5919 5918 5918 5919 5920 5921 5921 5921 5921 5921 5921 5920 5919 5919 5918 5918
5884 5884 5884 5884 5885 5886 5887 5888 5889 5890 5890 5891 5891 5892 5892 5892 5892 5893 5894 5894 5894 5894 5895 5896 5896 5896 5896 5897 5897 5898 5898 5899 5899 5899 5899 5900 5901 5902 5902 5902 5903 5904 5904 5905 5906 5907 5908 5908 5908 5909 5910 5910 5911 5912 5912 5913 5913 5913 5914 5915 5915 5916 5916 5917 5918 5918 5918 5918 5918 5918 5918 5918 5918 5919 5920 5921 5921 5921 5921 5921 5921 5920 5919 5919 5918
5884 5884 5884 5884 5884 5885 5886 5887 5888 5889 5889 5889 5890 5890 5891 5891 5891 5892 5893 5893 5893 5893 5894 5894 5895 5895 5895 5895 5896 5896 5897 5897 5897 5897 5897 5898 5899 5900 5901 5901 5901 5902 5903 5904 5905 5906 5906 5907 5907 5908 5909 5909 5910 5910 5911 5912 5912 5912 5913 5914 5915 5915 5915 5916 5916 5917 5917 5918 5918 5917 5917 5917 5918 5918 5919 5920 5920 5920 5920 5920 5920 5919 5919 5919 5918
5883 5883 5884 5884 5884 5884 5885 5885 5886 5887 5888 5889 5889 5889 5890 5890 5890 5891 5892 5892 5892 5892 5892 5893 5893 5893 5894 5894 5894 5895 5895 5895 5895 5895 5896 5897 5898 5899 5899 5900 5901 5901 5902 5902 5903 5904 5905 5906 5906 5907 5907 5908 5909 5909 5910 5911 5911 5912 5912 5912 5913 5914 5915 5915 5915 5916 5916 5917 5917 5917 5917 5917 5917 5917 5917 5918 5919 5919 5919 5919 5918 5918 5918 5918 5918
5881 5881 5882 5883 5883 5883 5884 5884 5884 5885 5887 5887 5888 5889 5889 5889 5890 5890 5891 5891 5891 5891 5891 5892 5892 5892 5893 5893 5893 5894 5895 5895 5894 5894 5895 5895 5896 5897 5898 5899 5900 5900 5901 5901 5902 5902 5903 5905 5905 5906 5906 5907 5908 5909 5909 5910 5911 5911 5911 5912 5912 5913 5913 5914 5914 5915 5915 5915 5916 5916 5916 5916 5916 5916 5916 5917 5917 5918 5918 5918 5917 5916 5916 5916 5916
5880 5880 5880 5881 5882 5882 5883 5883 5883 5884 5886 5886 5886 5887 5888 5888 5889 5889 5888 5889 5889 5889 5890 5891 5891 5891 5891 5892 5892 5893 5894 5894 5894 5894 5894 5895 5895 5896 5896 5898 5899 5899 5899 5900 5900 5901 5902 5903 5904 5905 5905 5906 5906 5907 5908 5909 5910 5911 5911 5911 5912 5912 5912 5912 5913 5914 5914 5914 5915 5915 5915 5915 5915 5915 5915 5915 5916 5916 5917 5916 5916 5916 5915 5915 5915
5879 5878 5879 5880 5881 5881 5881 5882 5883 5884 5885 5885 5886 5886 5886 5886 5886 5886 5887 5887 5888 5888 5889 5889 5889 5890 5890 5891 5891 5892 5892 5893 5893 5893 5894 5895 5895 5895 5895 5896 5897 5897 5898 5898 5899 5900 5900 5901 5902 5903 5904 5904 5905 5906 5907 5908 5909 5910 5910 5910 5911 5911 5911 5911 5912 5912 5913 5913 5914 5914 5913 5913 5913 5913 5913 5913 5914 5915 5915 5915 5915 5915 5915 5914 5914
5877 5877 5877 5878 5879 5880 5881 5881 5882 5883 5884 5885 5885 5885 5884 5884 5884 5885 5885 5886 5886 5887 5887 5888 5888 5889 5889 5890 5890 5891 5891 5892 5893 5894 5894 5894 5895 5895 5895 5895 5895 5896 5897 5897 5897 5898 5899 5900 5901 5902 5903 5904 5904 5905 5906 5907 5908 5908 5909 5909 5910 5910 5910 5911 5911 5911 5912 5912 5912 5912 5912 5912 5912 5912 5912 5912 5913 5913 5914 5914 5914 5914 5914 5913 5913
5876 5876 5877 5877 5878 5879 5880 5880 5881 5882 5883 5883 5883 5883 5883 5883 5884 5884 5885 5885 5885 5886 5886 5886 5887 5887 5888 5889 5889 5889 5890 5891 5892 5893 5893 5893 5894 5894 5895 5895 5896 5896 5896 5896 5896 5896 5897 5898 5899 5900 5902 5903 5903 5904 5905 5906 5907 5907 5907 5908 5908 5909 5909 5909 5910 5910 5911 5911 5911 5911 5911 5911 5910 5911 5911 5911 5911 5912 5913 5913 5913 5913 5913 5912 5912
5876 5876 5876 5877 5877 5878 5879 5880 5880 5881 5881 5882 5882 5882 5882 5883 5883 5883 5884 5885 5885 5885 5885 5885 5885 5886 5887 5888 5888 5888 5889 5890 5890 5891 5891 5892 5892 5893 5894 5896 5897 5897 5897 5896 5896 5896 5896 5897 5898 5899 5900 5901 5902 5903 5903 5904 5905 5905 5906 5907 5907 5907 5908 5908 5909 5909 5909 5910 5910 5910 5910 5910 5909 5909 5909 5910 5910 5910 5911 5912 5912 5912 5912 5911 5911
5876 5876 5876 5877 5878 5878 5879 5879 5880 5880 5881 5881 5881 5881 5881 5882 5882 5883 5883 5884 5884 5884 5884 5884 5884 5885 5887 5887 5887 5887 5887 5887 5888 5889 5890 5890 5891 5892 5894 5895 5896 5896 5896 5896 5896 5895 5895 5895 5896 5898 5899 5900 5900 5901 5901 5901 5902 5903 5904 5905 5906 5906 5907 5907 5907 5907 5908 5908 5908 5909 5909 5908 5908 5908 5908 5908 5908 5909 5910 5910 5910 5911 5911 5910 5910
5876 5876 5877 5877 5878 5879 5880 5880 5879 5880 5880 5880 5880 5880 5881 5881 5882 5882 5882 5883 5883 5883 5883 5883 5884 5885 5885 5886 5886 5886 5886 5887 5888 5888 5889 5889 5890 5890 5892 5893 5893 5894 5895 5896 5895 5894 5894 5894 5895 5896 5897 5897 5898 5898 5899 5899 5900 5900 5901 5903 5904 5904 5905 5905 5905 5906 5906 5906 5907 5907 5907 5907 5907 5907 5907 5907 5907 5907 5908 5908 5908 5909 5909 5909 5909
5876 5877 5877 5878 5878 5879 5880 5880 5880 5880 5880 5880 5880 5880 5880 5880 5881 5882 5882 5882 5882 5882 5882 5883 5883 5884 5884 5885 5885 5885 5886 5886 5886 5887 5888 5888 5888 5889 5890 5890 5890 5891 5894 5895 5895 5894 5893 5893 5893 5894 5894 5895 5895 5896 5897 5897 5898 5898 5899 5900 5901 5902 5903 5903 5903 5903 5904 5904 5904 5905 5905 5905 5905 5905 5905 5905 5905 5905 5906 5906 5907 5907 5908 5908 5907
5877 5877 5878 5878 5879 5879 5880 5880 5880 5881 5881 5880 5880 5880 5880 5881 5881 5881 5881 5881 5881 5881 5882 5882 5883 5883 5883 5884 5884 5884 5884 5885 5886 5887 5887 5888 5888 5888 5888 5888 5887 5888 5891 5894 5895 5893 5891 5891 5892 5893 5892 5892 5893 5894 5895 5895 5896 5897 5897 5898 5899 5899 5900 5901 5901 5901 5902 5902 5902 5902 5902 5902 5903 5903 5904 5904 5904 5904 5904 5904 5904 5905 5905 5906 5906
5877 5877 5877 5878 5879 5879 5880 5880 5881 5881 5881 5881 5881 5881 5881 5881 5881 5881 5881 5881 5881 5881 5881 5881 5882 5882 5883 5883 5884 5884 5884 5884 5885 5886 5887 5887 5887 5886 5885 5884 5884 5886 5889 5891 5893 5892 5890 5889 5890 5891 5890 5890 5891 5892 5892 5893 5894 5895 5896 5896 5897 5897 5897 5898 5898 5899 5899 5899 5899 5899 5900 5900 5900 5901 5901 5902 5903 5903 5903 5902 5902 5902 5902 5903 5903
5878 5877 5877 5877 5878 5878 5879 5880 5881 5881 5882 5882 5882 5882 5882 5881 5881 5881 5882 5882 5882 5882 5882 5882 5882 5882 5882 5882 5882 5883 5883 5883 5884 5884 5884 5884 5884 5883 5883 5883 5884 5886 5888 5889 5890 5888 5887 5887 5887 5888 5888 5888 5889 5889 5890 5891 5892 5893 5894 5894 5895 5895 5895 5896 5896 5896 5896 5897 5897 5897 5897 5897 5897 5898 5898 5899 5900 5901 5901 5901 5900 5899 5899 5899 5900
5878 5877 5877 5877 5877 5878 5879 5880 5880 5881 5882 5883 5883 5883 5882 5882 5882 5882 5881 5882 5882 5882 5882 5882 5882 5882 5882 5882 5882 5882 5882 5882 5882 5882 5881 5882 5882 5883 5884 5884 5885 5885 5886 5886 5886 5885 5884 5884 5884 5885 5886 5886 5886 5886 5887 5888 5889 5890 5891 5892 5892 5893 5893 5893 5893 5894 5894 5894 5894 5894 5894 5894 5894 5895 5895 5896 5897 5898 5898 5898 5898 5897 5897 5897 5897
5877 5877 5877 5877 5877 5878 5878 5879 5880 5881 5882 5882 5883 5883 5883 5882 5882 5882 5881 5881 5881 5881 5881 5882 5882 5882 5882 5882 5882 5882 5882 5882 5882 5882 5882 5883 5883 5884 5884 5884 5884 5884 5883 5883 5883 5883 5882 5882 5883 5883 5884 5884 5884 5884 5885 5886 5887 5888 5888 5889 5890 5890 5890 5891 5891 5891 5891 5891 5891 5891 5891 5891 5891 5892 5892 5893 5894 5894 5895 5895 5895 5895 5895 5895 5894
5876 5876 5876 5876 5876 5877 5877 5878 5879 5879 5880 5881 5882 5882 5883 5883 5882 5882 5881 5881 5881 5881 5881 5881 5881 5882 5882 5882 5882 5883 5883 5883 5883 5883 5883 5883 5883 5883 5883 5883 5882 5882 5882 5882 5882 5882 5881 5881 5881 5881 5882 5882 5882 5883 5883 5884 5885 5885 5885 5886 5886 5886 5887 5888 5888 5888 5888 5889 5888 5888 5888 5888 5889 5889 5889 5890 5890 5891 5891 5892 5892 5892 5892 5893 5892
5874 5874 5874 5874 5875 5876 5876 5877 5877 5878 5879 5879 5880 5881 5881 5882 5882 5881 5881 5881 5880 5880 5880 5880 5880 5880 5881 5881 5881 5882 5882 5882 5882 5882 5882 5882 5882 5882 5882 5882 5881 5881 5881 5881 5881 5881 5881 5880 5880 5879 5879 5880 5880 5881 5881 5882 5882 5882 5882 5882 5882 5883 5884 5884 5885 5885 5885 5885 5885 5885 5885 5885 5886 5886 5886 5886 5887 5887 5888 5888 5889 5889 5889 5890 5890
5872 5872 5873 5873 5874 5874 5875 5876 5877 5877 5877 5878 5878 5879 5879 5879 5879 5880 5880 5879 5879 5879 5878 5878 5878 5878 5879 5879 5879 5880 5880 5880 5881 5881 5881 5881 5881 5881 5881 5881 5880 5880 5880 5880 5880 5880 5880 5879 5879 5878 5878 5878 5878 5878 5879 5879 5879 5879 5879 5879 5879 5879 5880 5881 5881 5881 5881 5881 5881 5881 5882 5882 5883 5883 5883 5883 5884 5884 5885 5885 5885 5886 5886 5886 5886
5871 5871 5870 5871 5872 5873 5874 5875 5875 5876 5876 5876 5876 5877 5877 5877 5877 5877 5877 5877 5877 5877 5876 5876 5876 5876 5876 5877 5877 5877 5878 5878 5878 5879 5879 5880 5880 5880 5880 5880 5880 5880 5879 5879 5879 5879 5879 5879 5878 5877 5877 5876 5876 5876 5876 5876 5876 5876 5876 5876 5876 5876 5877 5877 5877 5877 5877 5877 5877 5878 5879 5880 5880 5880 5880 5880 5880 5881 5881 5882 5882 5882 5883 5883 5883
5871 5869 5868 5869 5870 5872 5872 5873 5873 5874 5874 5874 5874 5875 5875 5875 5875 5875 5875 5875 5875 5874 5874 5874 5874 5874 5874 5874 5874 5875 5875 5876 5876 5876 5877 5877 5877 5877 5878 5878 5878 5878 5878 5878 5878 5878 5878 5877 5877 5876 5875 5874 5874 5874 5874 5873 5873 5873 5873 5873 5873 5873 5873 5873 5873 5873 5873 5873 5874 5875 5876 5876 5877 5877 5877 5877 5877 5877 5877 5878 5878 5878 5879 5879 5879
5870 5869 5868 5868 5869 5870 5871 5871 5871 5871 5871 5871 5872 5872 5872 5872 5872 5872 5872 5872 5873 5873 5872 5872 5872 5872 5872 5872 5872 5872 5872 5872 5873 5873 5873 5874 5874 5874 5874 5875 5875 5875 5876 5876 5876 5876 5876 5875 5875 5874 5873 5873 5872 5872 5871 5871 5871 5871 5870 5870 5870 5869 5869 5869 5869 5868 5869 5871 5872 5873 5872 5873 5873 5873 5874 5874 5874 5874 5873 5873 5874 5874 5875 5875 5875
5869 5869 5868 5868 5868 5869 5870 5870 5870 5869 5868 5869 5869 5869 5869 5869 5869 5870 5870 5870 5870 5871 5871 5871 5870 5870 5870 5870 5870 5870 5870 5870 5870 5870 5870 5870 5871 5871 5871 5871 5872 5872 5873 5873 5873 5874 5873 5873 5872 5872 5871 5870 5869 5869 5869 5869 5868 5868 5868 5867 5867 5866 5865 5865 5865 5865 5867 5868 5868 5868 5868 5869 5869 5869 5870 5870 5870 5870 5870 5870 5870 5870 5870 5871 5871
5869 5868 5868 5868 5869 5869 5870 5869 5869 5868 5867 5867 5867 5867 5867 5868 5868 5868 5868 5869 5869 5869 5869 5869 5869 5869 5868 5868 5868 5868 5868 5867 5868 5868 5868 5868 5868 5868 5868 5868 5869 5869 5869 5870 5870 5870 5870 5870 5869 5869 5868 5867 5867 5866 5866 5865 5865 5865 5865 5865 5864 5863 5862 5862 5862 5863 5864 5863 5863 5863 5864 5865 5866 5865 5866 5865 5865 5866 5866 5866 5866 5866 5866 5866 5866
5868 5868 5868 5868 5868 5869 5869 5869 5868 5867 5866 5866 5866 5866 5866 5866 5866 5867 5867 5867 5867 5867 5867 5867 5867 5867 5867 5867 5867 5866 5866 5866 5865 5865 5865 5865 5865 5865 5865 5865 5865 5866 5866 5866 5866 5866 5866 5866 5865 5865 5865 5864 5863 5863 5862 5862 5861 5861 5861 5861 5861 5860 5859 5859 5859 5859 5860 5859 5858 5859 5860 5861 5861 5862 5861 5861 5861 5861 5861 5862 5862 5862 5862 5862 5861
5866 5867 5867 5867 5867 5867 5868 5867 5867 5866 5866 5865 5866 5866 5866 5865 5865 5865 5865 5865 5865 5865 5865 5864 5864 5864 5865 5865 5864 5864 5864 5864 5863 5863 5862 5862 5862 5862 5862 5862 5862 5862 5862 5862 5862 5862 5861 5861 5861 5861 5860 5860 5859 5859 5858 5858 5857 5857 5857 5857 5857 5857 5856 5855 5855 5855 5856 5855 5855 5855 5856 5856 5857 5857 5857 5857 5857 5857 5857 5858 5858 5858 5858 5858 5857
5863 5864 5865 5865 5864 5865 5865 5865 5866 5865 5865 5865 5865 5866 5865 5864 5864 5863 5863 5863 5863 5863 5862 5862 5862 5862 5862 5862 5862 5862 5862 5861 5861 5861 5860 5860 5859 5859 5859 5859 5859 5859 5859 5858 5858 5858 5857 5857 5856 5856 5856 5855 5855 5854 5853 5853 5853 5853 5853 5853 5853 5853 5852 5852 5851 5851 5851 5851 5851 5851 5851 5852 5853 5853 5853 5854 5854 5854 5854 5854 5854 5854 5853 5853 5852
5860 5861 5862 5862 5862 5862 5863 5863 5863 5863 5863 5864 5864 5865 5865 5864 5863 5862 5861 5861 5861 5861 5860 5860 5860 5859 5859 5859 5859 5859 5859 5859 5859 5858 5858 5858 5857 5857 5856 5856 5856 5855 5855 5855 5854 5854 5853 5853 5852 5852 5852 5851 5850 5850 5849 5848 5848 5848 5848 5848 5848 5848 5848 5848 5848 5847 5847 5847 5847 5847 5847 5847 5848 5849 5849 5849 5850 5850 5850 5850 5849 5849 5849 5849 5848
5856 5857 5858 5859 5859 5859 5860 5860 5861 5861 5862 5862 5862 5863 5863 5863 5861 5860 5860 5859 5859 5858 5858 5858 5858 5857 5857 5857 5857 5857 5857 5857 5857 5856 5856 5856 5855 5854 5854 5853 5853 5852 5852 5851 5851 5850 5850 5849 5849 5848 5847 5847 5846 5846 5845 5844 5843 5843 5843 5843 5843 5843 5843 5844 5843 5843 5843 5843 5842 5842 5843 5843 5843 5844 5844 5844 5845 5845 5845 5845 5845 5845 5845 5845 5844
5851 5853 5854 5855 5856 5857 5857 5858 5858 5859 5859 5859 5859 5860 5860 5860 5859 5858 5858 5857 5856 5856 5856 5856 5855 5855 5855 5854 5854 5854 5854 5854 5854 5854 5854 5854 5853 5852 5852 5851 5850 5849 5849 5848 5847 5847 5846 5846 5845 5844 5843 5842 5842 5841 5841 5840 5840 5839 5838 5838 5837 5838 5838 5838 5838 5838 5838 5838 5838 5838 5838 5838 5838 5839 5839 5839 5840 5840 5840 5840 5841 5841 5841 5841 5840
5847 5848 5851 5852 5853 5854 5854 5855 5855 5856 5856 5856 5856 5856 5857 5857 5856 5855 5855 5854 5854 5854 5853 5853 5853 5853 5853 5852 5852 5852 5852 5852 5852 5852 5852 5852 5851 5850 5850 5849 5847 5846 5845 5845 5844 5843 5843 5842 5841 5841 5840 5839 5838 5837 5836 5836 5835 5835 5834 5833 5833 5833 5833 5833 5833 5833 5833 5833 5833 5833 5833 5834 5834 5834 5834 5834 5835 5835 5835 5835 5836 5836 5836 5836 5836
5844 5846 5848 5849 5850 5851 5851 5852 5852 5852 5852 5853 5853 5853 5854 5854 5853 5853 5852 5852 5851 5851 5851 5851 5850 5850 5850 5850 5849 5849 5849 5849 5849 5849 5849 5849 5849 5848 5847 5846 5845 5844 5843 5842 5841 5840 5839 5839 5838 5837 5836 5835 5834 5833 5832 5831 5830 5830 5829 5829 5828 5828 5828 5828 5828 5828 5828 5828 5829 5829 5829 5829 5829 5830 5830 5830 5830 5830 5830 5831 5831 5831 5831 5832 5831
5841 5843 5844 5845 5846 5847 5847 5847 5848 5849 5849 5849 5850 5850 5851 5850 5850 5850 5849 5849 5849 5849 5849 5848 5848 5848 5848 5847 5847 5846 5846 5846 5846 5846 5846 5846 5845 5845 5844 5843 5842 5841 5840 5838 5838 5837 5836 5835 5834 5833 5832 5831 5830 5829 5828 5826 5826 5825 5824 5824 5824 5823 5823 5823 5823 5823 5823 5823 5823 5824 5824 5824 5825 5825 5825 5825 5826 5826 5826 5826 5827 5827 5827 5827 5827
5838 5838 5839 5841 5843 5843 5841 5840 5840 5843 5845 5846 5846 5847 5847 5847 5847 5847 5847 5846 5846 5846 5846 5845 5845 5845 5845 5844 5844 5844 5843 5843 5843 5843 5843 5842 5842 5841 5840 5839 5838 5837 5836 5835 5834 5833 5832 5831 5830 5829 5828 5827 5826 5824 5823 5822 5821 5820 5819 5819 5819 5818 5818 5818 5818 5818 5818 5818 5818 5819 5819 5819 5820 5820 5820 5821 5821 5822 5822 5822 5823 5823 5823 5823 5823
5833 5835 5835 5837 5839 5840 5840 5839 5837 5837 5839 5841 5842 5843 5844 5844 5844 5844 5843 5843 5843 5843 5843 5843 5842 5842 5842 5841 5841 5841 5840 5840 5840 5840 5839 5839 5839 5838 5837 5836 5835 5834 5832 5831 5830 5829 5828 5827 5826 5825 5824 5823 5821 5820 5819 5817 5816 5815 5815 5814 5814 5814 5813 5813 5813 5813 5813 5813 5813 5814 5814 5815 5815 5816 5816 5816 5817 5817 5818 5818 5818 5818 5819 5819 5819
5828 5831 5832 5833 5835 5836 5838 5838 5837 5835 5835 5836 5838 5839 5839 5840 5840 5840 5840 5840 5840 5840 5840 5839 5839 5840 5839 5839 5839 5838 5838 5838 5837 5837 5836 5836 5836 5835 5834 5833 5832 5830 5829 5828 5826 5825 5824 5823 5822 5820 5819 5818 5817 5816 5814 5813 5812 5811 5811 5810 5810 5810 5809 5809 5809 5809 5809 5809 5809 5810 5810 5811 5811 5811 5812 5812 5813 5813 5813 5814 5814 5814 5814 5814 5814
5822 5826 5829 5830 5832 5833 5833 5832 5833 5833 5831 5831 5832 5833 5834 5835 5836 5836 5837 5836 5836 5837 5837 5836 5836 5837 5836 5836 5836 5836 5836 5835 5835 5834 5834 5833 5833 5832 5831 5830 5829 5827 5826 5825 5823 5822 5820 5819 5817 5817 5816 5814 5813 5812 5811 5809 5808 5807 5807 5806 5806 5806 5805 5805 5805 5805 5805 5805 5805 5805 5806 5806 5807 5807 5808 5808 5809 5809 5810 5810 5810 5811 5811 5811 5811